Home > Weather > Buxar > Past weeks

Flag for India Past Weather in Buxar, Bihar, India — Yesterday and Last 2 Weeks

Now
91 °F

Broken clouds.


Feels Like: 118 °F
Forecast: 87 / 100 °F
Wind: 9 mph from East

Location: Lucknow / Amausi

Current Time: Jun 26, 2016 at 12:06:40 PM

Latest Report: Jun 26, 2016 at 11:30 AM


Visibility: 2 mi

Pressure: 29.59 "Hg

Humidity: 80%

Dew Point: 84 °F

Location of BuxarLocation

Past Weather in Buxar — Graph

°F

Buxar Temperature Yesterday

Maximum temperature yesterday: 100 °F (at 1:30 PM)
Minimum temperature yesterday: 84 °F (at 3:00 AM)
Average temperature yesterday: 90 °F

High & Low Weather Summary for the Past Weeks

 TemperatureHumidityPressure
High111 °F (Jun 11, 4:00 PM)100% (Jun 15, 5:30 PM)29.68 "Hg (Jun 15, 5:30 PM)
Low75 °F (Jun 21, 7:30 AM)25% (Jun 11, 4:00 PM)29.36 "Hg (Jun 14, 5:00 PM)
Average92 °F66%29.52 "Hg
* Reported Jun 11 10:30 AM — Jun 26 10:30 AM, Buxar, Weather by CustomWeather, © 2016

Note: Actual official high and low records may vary slightly from our data, if they occured in-between our weather recording intervals... More about our weather records

Advertising

Buxar Weather History for the Previous 24 Hours

Scroll right to see more
 ConditionsComfort  
Time TempWeatherWind HumidityBarometerVisibility
10:30 AM
Sun, Jun 26
91 °FBroken clouds.10 mph80%29.62 "Hg2 mi
10:00 AM91 °FBroken clouds.9 mph80%29.62 "Hg2 mi
9:30 AM90 °FBroken clouds.9 mph84%29.62 "Hg2 mi
8:30 AM90 °FBroken clouds.12 mph84%29.62 "Hg2 mi
8:00 AM88 °FBroken clouds.13 mph84%29.62 "Hg2 mi
7:30 AM88 °FBroken clouds.12 mph84%29.62 "Hg2 mi
7:00 AM86 °FBroken clouds.9 mph89%29.62 "Hg2 mi
6:30 AM86 °FBroken clouds.6 mph89%29.62 "Hg2 mi
6:00 AM86 °FBroken clouds.5 mph89%29.59 "Hg2 mi
5:30 AM86 °FPassing clouds.5 mph84%29.59 "Hg2 mi
5:00 AM86 °FPassing clouds.2 mph84%29.56 "Hg2 mi
4:00 AM86 °FPassing clouds.3 mph84%29.56 "Hg2 mi
3:00 AM86 °FPassing clouds.No wind84%29.59 "Hg2 mi
2:00 AM86 °FPassing clouds.2 mph84%29.59 "Hg2 mi
1:00 AM86 °FPassing clouds.2 mph84%29.59 "Hg2 mi
12:00 AM86 °FPassing clouds.2 mph84%29.62 "Hg2 mi
11:00 PM
Sat, Jun 25
86 °FPassing clouds.2 mph84%29.59 "Hg2 mi
10:00 PM86 °FPassing clouds.3 mph84%29.59 "Hg2 mi
9:00 PM88 °FPassing clouds.5 mph79%29.56 "Hg2 mi
8:30 PM88 °FPartly cloudy.5 mph79%29.53 "Hg2 mi
8:00 PM88 °FPartly cloudy.5 mph79%29.53 "Hg2 mi
7:30 PM88 °FBroken clouds.3 mph79%29.53 "Hg2 mi
7:00 PM90 °FScattered clouds.5 mph75%29.50 "Hg2 mi
6:30 PM90 °FBroken clouds.5 mph75%29.53 "Hg2 mi
6:00 PM91 °FMore clouds than sun.3 mph75%29.53 "Hg2 mi
5:30 PM86 °FMore clouds than sun.5 mph89%29.53 "Hg2 mi
5:00 PM91 °FMore clouds than sun.5 mph80%29.50 "Hg2 mi
4:30 PM91 °FMore clouds than sun.8 mph75%29.53 "Hg1 mi
4:00 PM91 °FMore clouds than sun.9 mph63%29.53 "Hg1 mi
3:30 PM90 °FLight rain. More clouds than sun.6 mph84%29.53 "Hg1 mi
3:00 PM97 °FRain. Broken clouds.10 mph63%29.50 "Hg1 mi
2:30 PM100 °FBroken clouds.5 mph57%29.53 "Hg3 mi
2:00 PM100 °FBroken clouds.3 mph60%29.53 "Hg3 mi
1:30 PM100 °FBroken clouds.2 mph57%29.53 "Hg3 mi
12:30 PM99 °FBroken clouds.2 mph60%29.56 "Hg3 mi
12:00 PM99 °FBroken clouds.3 mph60%29.59 "Hg3 mi
Weather by CustomWeather, © 2016

See weather overviewHow to use our weather pages